Regional Weather Roundup
Issued by NWS

Home | Current Version | Previous Version | Graphics & Text | Print | Product List | Glossary On
Versions: 1 2 3 4 5 6 7 8 9 10 11 12 13 14 15 16 17 18 19 20 21 22 23 24 25 26 27 28 29 30 31 32 33 34 35 36 37 38 39 40 41 42 43 44 45 46 47 48 49 50
000
ASUS43 KMKX 041500
RWRWI

WISCONSIN REGIONAL WEATHER ROUNDUP
NATIONAL WEATHER SERVICE MILWAUKEE/SULLIVAN WI
900 AM CST SUN DEC 04 2016

NOTE: "FAIR" INDICATES FEW OR NO CLOUDS BELOW 12,000 FEET WITH NO
SIGNIFICANT WEATHER AND/OR OBSTRUCTIONS TO VISIBILITY.

WIZ001-002-006>008-014>016-023>028-041600-
NORTHWEST WISCONSIN

CITY           SKY/WX    TMP DP  RH WIND       PRES   REMARKS
SUPERIOR ARPT  LGT SNOW  30  28  94 SE3       29.95F
ASHLAND        LGT SNOW  30  27  88 VRB5      29.98F VSB 3/4 WCI  25
HAYWARD        LGT SNOW  29  26  89 SE9       29.94F FOG     WCI  20
SIREN          LGT SNOW  31  29  93 S9G16     29.92F WCI  23
CUMBERLAND     LGT SNOW  30  28  93 SE10      29.93F WCI  21
RICE LAKE      LGT SNOW  30  29  95 SE9       29.96F VSB 1   WCI  22
CHETEK         LGT SNOW  30  29  96 SE8       29.96F VSB 1   WCI  22
LADYSMITH      LGT SNOW  30  28  94 SE8       29.99F WCI  22
EAU CLAIRE     NOT AVBL
MENOMONIE      LGT SNOW  32  31  97 E10       29.95F VSB 1   WCI  23
NEW RICHMOND   LGT SNOW  31  31  98 SE9       29.92F WCI  23
OSCEOLA        LGT SNOW  32  32 100 SE9       29.95F WCI  24
$$

WIZ003>005-009-010-017-018-041600-
NORTH CENTRAL WISCONSIN

CITY           SKY/WX    TMP DP  RH WIND       PRES   REMARKS
MANITOWISH WTR LGT SNOW  26  26 100 S7        29.98F WCI  19
ARBOR VITAE    LGT SNOW  29  27  92 SE5       29.99F WCI  24
WOODRUFF       LGT SNOW  29  27  92 SE5       29.99F WCI  24
RHINELANDER    LGT SNOW  27  25  92 SE8       30.00F VSB 1   WCI  19
EAGLE RIVER    LGT SNOW  26  22  85 S7        30.01F WCI  18
LAND O LAKES   CLOUDY    27  24  87 S6        30.02F FOG     WCI  20
PHILLIPS       LGT SNOW  27  26  95 SE8       29.98F WCI  19
TOMAHAWK       LGT SNOW  26  24  91 SE3       30.01F
MEDFORD        LGT SNOW  27  25  93 SE6       29.99F WCI  21
MERRILL        LGT SNOW  28  26  96 SE7       30.03F WCI  20
$$

WIZ029-030-035-036-043>047-041600-
CENTRAL WISCONSIN

CITY           SKY/WX    TMP DP  RH WIND       PRES   REMARKS
WAUSAU         LGT SNOW  28  26  92 SE8       30.03F FOG     WCI  20
MOSINEE        LGT SNOW  28  28 100 SE8       30.04F WCI  20
MARSHFIELD     LGT SNOW  29  27  92 SE8       30.00F VSB 3/4 WCI  21
STEVENS POINT  MIX PCPN  27  27 100 SE6       30.06F WCI  21
WAUPACA        LGT SNOW  32  30  92 CALM      30.09F
WAUTOMA        LGT SNOW  30  29  96 SE7       30.08F FOG     WCI  23
WISC RAPIDS    LGT SNOW  30  29  96 SE8       30.05F VSB 1   WCI  22
CAMP DOUGLAS   LGT SNOW  32  30  93 SE9       30.03F FOG     WCI  24
$$

WIZ011>013-019>022-031-037>040-048>050-041600-
NORTHEAST WISCONSIN

CITY           SKY/WX    TMP DP  RH WIND       PRES   REMARKS
ANTIGO         LGT SNOW  26  25  96 SE10      30.04F WCI  16
SHAWANO        LGT RAIN  31  29  91 SE5       30.11F WCI  26
OCONTO         CLOUDY    30  28  90 CALM      30.12F
STURGEON BAY   CLOUDY    31  24  75 S6        30.13F WCI  25
GREEN BAY      LGT SNOW  31  30  96 SE7       30.11F FOG     WCI  24
MANITOWOC      NOT AVBL
APPLETON       LGT SNOW  30  30 100 S6        30.08F WCI  24
CLINTONVILLE   LGT SNOW  30  30 100 SE5       30.10F WCI  25
OSHKOSH        LGT SNOW  30  28  92 SE7       30.09F VSB 1   WCI  23
$$

WIZ032>034-041-042-053>061-041600-
SOUTHWEST WISCONSIN

CITY           SKY/WX    TMP DP  RH WIND       PRES   REMARKS
LA CROSSE      LGT SNOW  34  32  92 S9        30.00F FOG     WCI  27
SPARTA         LGT SNOW  31  30  96 SE7       30.01F WCI  25
VIROQUA        CLOUDY    31  31 100 SE16      29.98F VSB 3/4 WCI  20
BOSCOBEL       SNOW      33  30  88 VRB5      30.04F VSB 1/2 WCI  29
PRAIRIE DU CHI LGT SNOW  32  30  94 SE8       30.02F VSB 1   WCI  25
PLATTEVILLE    CLOUDY    31  31 100 SE13      30.05F VSB 3/4 WCI  21
$$

WIZ056-057-062-063-064-067-068-041600-
SOUTH CENTRAL WISCONSIN

CITY           SKY/WX    TMP DP  RH WIND       PRES   REMARKS
REEDSBURG      RAIN      30  30 100 SE3       30.06S
BARABOO/DELLS  LGT SNOW  30  29  96 SE5       30.06F VSB 3/4 WCI  25
LONE ROCK      SNOW      31  29  92 SE8       30.07F VSB 1/2 WCI  23
MINERAL POINT  LGT SNOW  32  32 100 SE14      30.05S VSB 3/4 WCI  22
MADISON        LGT SNOW  30  28  92 S13       30.08F VSB 1   WCI  20
MIDDLETON      CLOUDY    32  32 100 SE10      30.08F VSB 3/4 WCI  23
WATERTOWN      LGT SNOW  31  29  94 SE6       30.10F WCI  25
MONROE         LGT SNOW  30  30 100 SE12      30.07F WCI  21
JANESVILLE     LGT SNOW  32  30  93 SE10      30.09F WCI  24
$$

WIZ051-052-058>065-066-070>072-041600-
SOUTHEAST WISCONSIN

CITY           SKY/WX    TMP DP  RH WIND       PRES   REMARKS
MILWAUKEE      CLOUDY    33  26  75 S5        30.13F WCI  29
WAUKESHA       CLOUDY    30  25  80 SE7       30.13F WCI  23
MILWAUKEE/TIMM CLOUDY    32  23  69 CALM      30.13F
RACINE         CLOUDY    33  26  75 CALM      30.14F
BURLINGTON     LGT SNOW  32  27  84 S7        30.12F WCI  25
KENOSHA        CLOUDY    33  25  72 S5        30.12F WCI  29
FOND DU LAC    LGT SNOW  31  27  85 S8        30.10F FOG     WCI  23
SHEBOYGAN      CLOUDY    31  27  85 CALM      30.12F
WEST BEND      CLOUDY    32  28  86 S3        30.11F
JUNEAU         LGT SNOW  30  28  94 SE7       30.11F WCI  23
$$

LSZ147-162-041600-
LAKE SUPERIOR

STATION/POSITION TIME  TEMP    WIND        PRES    WAVE
                       AIR SEA DIR/SP/G            HT/PER
                 (UTC) (F)     (DEG/KT/KT) (MB)    (FT/S)
DEVILS ISLAND    1400   31     150/  6/  8 1017.0F
PORT WING        1440   31     140/  4/  8 1014.9F
SAXON HARBOR     1440   31     180/  3/  8 1015.6F
$$

LMZ867-665-643>646-041600-
LAKE MICHIGAN

STATION/POSITION TIME  TEMP    WIND        PRES    WAVE
                       AIR SEA DIR/SP/G            HT/PER
                 (UTC) (F)     (DEG/KT/KT) (MB)    (FT/S)
CHAMBERS ISLAND  1440   33     210/  2/  8 1020.0F
NORTHPORT PIER   1440   33     170/  2/  5 1020.7F
SISTER BAY       1353   33     190/  9/ 11   N/A
ALGOMA LAKESHORE 1421          240/  9/ 10   N/A
KEWAUNEE LAKESHO 1430   30     220/  5/  7 1020.3F
SHEBOYGAN LAKESH 1400   32     210/  5/  6 1021.7F
PORT WASHINGTON  1440   34     220/  2/  6 1021.3F
MILWAUKEE LAKESH 1430   34     160/  5/  6   N/A
S MID LAKE BUOY  1350   37 48  190/  4/  6 1022.1F   0
KENOSHA   LAKESH 1400   33     180/  2/  3 1020.7
$$

TC  - TEMPERATURE IN CELSIUS
VSB - VISIBILITY IN STATUTE MILES
WCI - WIND CHILL INDEX
HX  - HEAT INDEX





USA.gov is the U.S. government's official web portal to all federal, state and local government web resources and services.